Estherville, IA

10:46 AM CDT on August 22, 2017 (GMT -0500)
Estherville Municipal

Weather History for KEST - February, 2014

Change the Weather History Date:

Saturday, February 1, 2014

  Actual Average Record
Temperature  
Mean Temperature 8 °F 17 °F  
Max Temperature 19 °F 26 °F 53 °F (1987)
Min Temperature -4 °F 8 °F -18 °F (1951)
Degree Days  
Heating Degree Days 57 48  
Month to date heating degree days 57 48  
Since 1 July heating degree days 4960 4719  
Cooling Degree Days 0 0  
Month to date cooling degree days 0 0  
Year to date cooling degree days 0 0  
Moisture  
Dew Point 7 °F    
Average Humidity 80    
Maximum Humidity 92    
Minimum Humidity 67    
Precipitation  
Precipitation T in 0.01 in 0.46 in (2004)
Month to date precipitation T 0.01  
Sea Level Pressure  
Sea Level Pressure 30.06 in    
Wind  
Wind Speed 13 mph (WNW)    
Max Wind Speed 23 mph    
Max Gust Speed 27 mph    
Visibility 8 miles    
Events Snow    
T = Trace of Precipitation, MM = Missing Value Source: NWS Daily Summary

Daily Weather History Graph

Daily Weather History Graph

Search for Another Location

Airport or City:

Trip Planner

Search our weather history database for the weather conditions in past years. The results will help you decide how hot, cold, wet, or windy it might be!

Date:

Astronomy

Feb. 01, 2014 Rise Set
Actual Time 7:34 AM CST 5:30 PM CST
Civil Twilight 7:04 AM CST 6:01 PM CST
Nautical Twilight 6:30 AM CST 6:35 PM CST
Astronomical Twilight 5:56 AM CST 7:08 PM CST
Moon 8:19 AM CST (2/1) 8:13 PM CST (2/1)
Length of Visible Light 10h 56m
Length of Day
9h 55m
Waxing Crescent, 5% of the Moon is Illuminated
Feb 1
Waxing Crescent
Feb 6
First Quarter
Feb 14
Full
Feb 22
Last Quarter
Mar 1
New

Hourly Weather History & Observations

Time (CST) Temp. Windchill Dew Point Humidity Pressure Visibility Wind Dir Wind Speed Gust Speed Precip Events Conditions
12:52 AM 10.9 °F -4.7 °F 5.0 °F 77% 30.03 in 10.0 mi South 13.8 mph - N/A   Overcast
1:52 AM 12.0 °F -2.7 °F 6.1 °F 77% 30.00 in 10.0 mi South 12.7 mph - N/A   Overcast
2:52 AM 12.0 °F 0.5 °F 7.0 °F 80% 30.00 in 10.0 mi South 8.1 mph - N/A   Mostly Cloudy
3:52 AM 12.9 °F 0.7 °F 8.1 °F 81% 29.98 in 10.0 mi South 9.2 mph - N/A   Overcast
4:52 AM 12.9 °F 2.6 °F 10.0 °F 88% 29.96 in 9.0 mi South 6.9 mph - N/A   Overcast
5:52 AM 14.0 °F -0.2 °F 10.9 °F 88% 29.97 in 2.5 mi South 12.7 mph - 0.00 in Snow Light Snow
6:05 AM 14.0 °F 2.0 °F 10.9 °F 88% 29.89 in 2.0 mi South 9.2 mph - 0.00 in Snow Light Snow
6:14 AM 14.0 °F 2.0 °F 10.9 °F 88% 29.89 in 1.5 mi SSW 9.2 mph - 0.00 in Snow Light Snow
6:37 AM 14.0 °F 3.9 °F 12.0 °F 92% 29.89 in 2.5 mi SSW 6.9 mph - 0.00 in Snow Light Snow
6:47 AM 14.0 °F 3.9 °F 12.2 °F 93% 29.89 in 3.0 mi SSW 6.9 mph - 0.00 in Snow Light Snow
6:52 AM 15.1 °F 5.2 °F 12.0 °F 88% 29.98 in 3.0 mi SSW 6.9 mph - 0.00 in Snow Light Snow
7:52 AM 15.1 °F 5.2 °F 12.0 °F 88% 29.98 in 10.0 mi SSW 6.9 mph - 0.00 in   Overcast
8:28 AM 17.1 °F 5.8 °F 14.0 °F 88% 29.91 in 10.0 mi SW 9.2 mph - N/A   Overcast
8:52 AM 17.1 °F 6.6 °F 14.0 °F 88% 30.00 in 9.0 mi WSW 8.1 mph - N/A   Overcast
9:52 AM 19.0 °F 5.0 °F 14.0 °F 81% 30.03 in 9.0 mi NW 15.0 mph - N/A   Mostly Cloudy
10:52 AM 18.0 °F 3.6 °F 12.0 °F 78% 30.07 in 8.0 mi NNW 15.0 mph - N/A   Mostly Cloudy
11:08 AM 16.0 °F -0.4 °F 9.0 °F 74% 29.99 in 4.0 mi NNW 18.4 mph - 0.00 in Snow Light Snow
11:48 AM 15.8 °F 0.3 °F 10.4 °F 79% 30.01 in 9.0 mi NNW 16.1 mph - 0.00 in   Mostly Cloudy
11:52 AM 16.0 °F 0.1 °F 10.0 °F 77% 30.08 in 10.0 mi NNW 17.3 mph - 0.00 in   Scattered Clouds
12:52 PM 17.1 °F 2.0 °F 9.0 °F 71% 30.07 in 10.0 mi NNW 16.1 mph - N/A   Clear
1:52 PM 17.1 °F 0.6 °F 9.0 °F 71% 30.08 in 10.0 mi NNW 19.6 mph - N/A   Clear
2:52 PM 16.0 °F -1.3 °F 9.0 °F 74% 30.11 in 9.0 mi NNW 20.7 mph - N/A   Clear
3:43 PM 15.1 °F -2.0 °F 8.1 °F 74% 30.05 in 8.0 mi NNW 19.6 mph - N/A   Mostly Cloudy
3:52 PM 15.1 °F -1.6 °F 7.0 °F 70% 30.13 in 10.0 mi NNW 18.4 mph - N/A   Scattered Clouds
3:59 PM 15.1 °F -0.6 °F 7.0 °F 70% 30.06 in 9.0 mi NNW 16.1 mph - N/A   Mostly Cloudy
4:52 PM 12.9 °F -3.9 °F 6.1 °F 74% 30.17 in 7.0 mi NNW 17.3 mph - 0.00 in   Mostly Cloudy
5:31 PM 10.9 °F -5.4 °F 5.0 °F 77% 30.10 in 7.0 mi NNW 15.0 mph - 0.00 in   Scattered Clouds
5:52 PM 10.0 °F -6.5 °F 3.9 °F 76% 30.19 in 10.0 mi NNW 15.0 mph - 0.00 in   Clear
6:52 PM 7.0 °F -9.1 °F 1.9 °F 80% 30.22 in 10.0 mi NW 12.7 mph - N/A   Clear
7:52 PM 6.1 °F -10.2 °F -0.0 °F 76% 30.24 in 10.0 mi NNW 12.7 mph - N/A   Clear
8:52 PM 3.9 °F -11.3 °F -0.9 °F 80% 30.27 in 10.0 mi NNW 10.4 mph - N/A   Clear
9:52 PM 3.0 °F -14.1 °F -2.9 °F 76% 30.29 in 10.0 mi NW 12.7 mph - N/A   Clear
10:52 PM 1.0 °F -12.9 °F -4.0 °F 79% 30.30 in 10.0 mi NW 8.1 mph - N/A   Clear
11:52 PM -4.0 °F -16.3 °F -8.0 °F 83% 30.32 in 10.0 mi WNW 5.8 mph - N/A   Clear